Погода в Чамели

Турция     37°04′41″N   29°20′49″E
темп.,
°C
ветер,
м/с
пор.,
м/с
влажн.,
%
обл.,
%
осадки,
мм/ч
давл.,
гПа
погр.,
м
5 марта, пт
пт500:00+3всв22370 0.0 102022
03:00+2в11350 0.0 101922
06:00+2ююв11340 0.0 102022
09:00+7ююв11310 0.0 102049
12:00+12юз34220 0.0 1021877
15:00+13юз44240 0.0 10201070
18:00+10юз33370 0.0 1021405
21:00+4ю226517 0.0 102222
6 марта, сб
сб600:00+3ююз234879 0.0 102325
03:00+2ю225289 0.0 102422
06:00+1ююв225567 0.0 102322
09:00+5ю224972 0.0 1024101
12:00+10ююз3435100 0.0 1023612
15:00+10юз4555100 0.0 1022885
18:00+7юз337274 0.0 1021600
21:00+3юз129444 0.0 102225
7 марта, вс
вс700:00+2з11900 0.0 102222
03:00+1ссв11870 0.0 102122
06:00+1ссв22780 0.0 102122
09:00+5св33690 0.0 1021143
12:00+10с22510 0.0 10191172
15:00+11сз344531 0.1 10181619
18:00+9зсз335596 0.3 10161126
21:00+4с227566 0.4 101722
8 марта, пн
пн800:00+2св33780 0.0 101742
03:00+1св33830 0.0 101742
06:000св23830 0.0 101627
09:00+4св22640 0.0 1016126
12:00+9зюз23290 0.0 10151116
15:00+11зюз44250 0.0 10141663
18:00+9зюз33379 0.0 1013959
21:00+3ссз015815 0.0 101522
9 марта, вт
вт900:00+2всв11583 0.0 101522
03:00+2ю115452 0.0 101522
06:00+1ю115449 0.0 101522
09:00+6ю223534 0.0 1016111
12:00+12юз342360 0.0 10151016
15:00+12юз562980 0.0 10141209
18:00+8ююз3357100 0.0 1013629
21:00+6вюв227199 0.1 101446